This is the latest recevied weather packets stored in our database for station/object PACCTY-2. If no packets are shown the sender has not sent any weather packets the latest 1 day(s).
| Time | Temp. | Humidity | Pressure | Rain* | Wind** | Luminosity | Snow |
|---|---|---|---|---|---|---|---|
| 1778008770 | 14.44° C | - | - | 0 mm | 2.24 m/s, 259° | - | - |
| 1778008469 | 14.44° C | - | - | 0 mm | 2.68 m/s, 271° | - | - |
| 1778008168 | 14.44° C | - | - | 0 mm | 2.24 m/s, 277° | - | - |
| 1778007867 | 14.44° C | - | - | 0 mm | 3.13 m/s, 267° | - | - |
| 1778007566 | 13.89° C | - | - | 0 mm | 2.68 m/s, 267° | - | - |
| 1778007265 | 13.89° C | - | - | 0 mm | 3.13 m/s, 263° | - | - |
| 1778006061 | 13.89° C | - | - | 0 mm | 3.13 m/s, 268° | - | - |
| 1778005760 | 13.89° C | - | - | 0 mm | 2.68 m/s, 266° | - | - |
| 1778004857 | 13.89° C | - | - | 0 mm | 2.24 m/s, 252° | - | - |
| 1778004557 | 13.89° C | - | - | 0 mm | 2.24 m/s, 264° | - | - |
| 1778004255 | 13.89° C | - | - | 0 mm | 2.24 m/s, 263° | - | - |
| 1778003653 | 13.89° C | - | - | 0 mm | 3.13 m/s, 263° | - | - |
| 1778003352 | 13.89° C | - | - | 0 mm | 3.13 m/s, 253° | - | - |
| 1778001546 | 13.33° C | - | - | 0 mm | 3.58 m/s, 257° | - | - |
| 1778001246 | 13.33° C | - | - | 0 mm | 3.13 m/s, 253° | - | - |
| 1778000946 | 13.33° C | - | - | 0 mm | 3.58 m/s, 261° | - | - |
| 1778000041 | 13.33° C | - | - | 0 mm | 3.58 m/s, 257° | - | - |
| 1777999742 | 13.33° C | - | - | 0 mm | 3.58 m/s, 261° | - | - |
| 1777999440 | 13.33° C | - | - | 0 mm | 4.92 m/s, 254° | - | - |
| 1777999139 | 13.33° C | - | - | 0 mm | 3.13 m/s, 245° | - | - |
| 1777998235 | 13.33° C | - | - | 0 mm | 3.13 m/s, 260° | - | - |
| 1777997934 | 13.33° C | - | - | 0 mm | 3.13 m/s, 263° | - | - |
| 1777997633 | 12.78° C | - | - | 0 mm | 3.13 m/s, 256° | - | - |
| 1777997332 | 12.78° C | - | - | 0 mm | 3.58 m/s, 249° | - | - |
| 1777997031 | 12.78° C | - | - | 0 mm | 2.68 m/s, 238° | - | - |
* Rain latest hour (hover to see other rain measurements)
** Current wind speed in m/s (hover to see current wind gust speed)